KUIPER-00038

导读 | 豆包AI

KUIPER-00038是美国亚马逊“柯伊伯计划”(Project Kuiper)卫星互联网项目中的一颗量产卫星,于2025年4月28日发射升空。该项目计划在近地轨道部署3236颗卫星,为全球提供高速卫星互联网接入。此卫星配备多波束相控阵天线,可按需分配容量,配合激光星间链路实现高速组网,将助力柯伊伯星座完成全球覆盖部署,填补互联网覆盖盲区。

基本信息
目录编号:
63750
目录名称:
KUIPER-00038
国际标识:
2025-088AC
轨道中心:
EARTH
卫星名称:
KUIPER-00038
卫星全名:
KUIPER-00038
卫星状态:
在轨 (已飞行320 天)
发射日期:
2025-04-28 UTC
国别 :
美国 (US)
星等 :
--
轨道信息
数据来源 国际轨道数据
星历时间: 2026-03-13T18:32:57+0800
16小时前
查看轨道信息
半长轴: 7007.86km
偏心率: 0.0000737
轨道倾角: 51.902°
近地点辐角 98.522°
升交点赤经 81.511°
平近点角 261.582°
近地点: 629.206km
远地点: 630.24km
周期: 97.306分钟
每日圈数: 14.798739
详细信息
使用方式:
暂无
2D轨道图
3D轨道图
轨道高度分析图
轨道倾角分析图
轨道综合分析图
查看轨道综合分析图